• In Deutschland
  • Länderverzeichnis
  • Für 7 Tage
  • Wassertemperatur
  • Satellitenkarten
  • Wetterkarte
  • Widgets
  • user-avatar
    Anmelden

    Stündliche Wetter Andora

    Heute, 21 Oktober, Samstag

    Zeit Temperatur Niederschläge Wind Luftdruck Luftfeuchtigkeit
    00:00 +7°C° 0 mm 1 m/S 626 mmHg 79%
    01:00 +7°C° 0 mm 1 m/S 626 mmHg 76%
    02:00 +7°C° 0 mm 1 m/S 626 mmHg 74%
    03:00 +7°C° 0 mm 1 m/S 626 mmHg 72%
    04:00 +7°C° 0 mm 1 m/S 626 mmHg 70%
    05:00 +7°C° 0 mm 1 m/S 626 mmHg 67%
    06:00 +7°C° 0 mm 1 m/S 626 mmHg 65%
    07:00 +9°C° 0 mm 1 m/S 627 mmHg 61%
    08:00 +10°C° 0 mm 2 m/S 628 mmHg 58%
    09:00 +13°C° 0 mm 2 m/S 630 mmHg 54%
    10:00 +13°C° 0 mm 2 m/S 630 mmHg 55%
    11:00 +14°C° 0 mm 2 m/S 630 mmHg 55%
    12:00 +15°C° 0 mm 2 m/S 630 mmHg 55%
    13:00 +14°C° 0,1 mm 2 m/S 630 mmHg 60%
    14:00 +13°C° 0,1 mm 2 m/S 630 mmHg 65%
    15:00 +12°C° 0,1 mm 2 m/S 629 mmHg 70%
    16:00 +11°C° 0,1 mm 1 m/S 629 mmHg 77%
    17:00 +9°C° 0,1 mm 1 m/S 629 mmHg 84%
    18:00 +8°C° 0,1 mm 1 m/S 629 mmHg 91%
    19:00 +8°C° 0,1 mm 1 m/S 629 mmHg 91%
    20:00 +8°C° 0,1 mm 1 m/S 629 mmHg 92%
    21:00 +6°C° 0,1 mm 2 m/S 629 mmHg 93%
    22:00 +6°C° 0,1 mm 2 m/S 629 mmHg 93%
    23:00 +6°C° 0,1 mm 2 m/S 629 mmHg 94%

    Morgen, 22 Oktober, Sonntag

    Zeit Temperatur Niederschläge Wind Luftdruck Luftfeuchtigkeit
    00:00 +5°C° 0,1 mm 2 m/S 629 mmHg 94%
    01:00 +5°C° 0 mm 2 m/S 629 mmHg 93%
    02:00 +4°C° 0 mm 2 m/S 629 mmHg 93%
    03:00 +4°C° 0 mm 2 m/S 629 mmHg 92%
    04:00 +3°C° 0 mm 2 m/S 628 mmHg 91%
    05:00 +3°C° 0 mm 2 m/S 628 mmHg 90%
    06:00 +2°C° 0 mm 2 m/S 628 mmHg 89%
    07:00 +3°C° 0 mm 2 m/S 629 mmHg 82%
    08:00 +5°C° 0 mm 2 m/S 629 mmHg 76%
    09:00 +5°C° 0 mm 3 m/S 630 mmHg 69%
    10:00 +7°C° 0 mm 3 m/S 630 mmHg 62%
    11:00 +8°C° 0 mm 3 m/S 631 mmHg 56%
    12:00 +9°C° 0 mm 3 m/S 631 mmHg 49%
    13:00 +9°C° 0 mm 3 m/S 630 mmHg 50%
    14:00 +9°C° 0 mm 3 m/S 630 mmHg 50%
    15:00 +9°C° 0 mm 3 m/S 630 mmHg 51%
    16:00 +7°C° 0 mm 3 m/S 629 mmHg 60%
    17:00 +5°C° 0 mm 2 m/S 629 mmHg 69%
    18:00 +4°C° 0 mm 2 m/S 628 mmHg 78%
    19:00 +3°C° 0 mm 2 m/S 628 mmHg 78%
    20:00 +3°C° 0 mm 2 m/S 629 mmHg 77%
    21:00 +2°C° 0 mm 3 m/S 629 mmHg 76%
    22:00 +2°C° 0 mm 2 m/S 628 mmHg 76%
    23:00 +2°C° 0 mm 2 m/S 628 mmHg 76%

    übermorgen, 23 Oktober, Montag

    Zeit Temperatur Niederschläge Wind Luftdruck Luftfeuchtigkeit
    00:00 +2°C° 0 mm 2 m/S 628 mmHg 76%
    01:00 +2°C° 0 mm 2 m/S 628 mmHg 75%
    02:00 +1°C° 0 mm 2 m/S 628 mmHg 74%
    03:00 +1°C° 0 mm 2 m/S 628 mmHg 74%
    04:00 +1°C° 0 mm 2 m/S 628 mmHg 73%
    05:00 +1°C° 0 mm 2 m/S 628 mmHg 72%
    06:00 +1°C° 0 mm 2 m/S 628 mmHg 71%
    07:00 +3°C° 0 mm 2 m/S 629 mmHg 64%
    08:00 +5°C° 0 mm 2 m/S 630 mmHg 57%
    09:00 +7°C° 0 mm 2 m/S 631 mmHg 50%
    10:00 +9°C° 0 mm 2 m/S 631 mmHg 47%
    11:00 +10°C° 0 mm 2 m/S 631 mmHg 45%
    12:00 +12°C° 0 mm 2 m/S 632 mmHg 42%
    13:00 +12°C° 0 mm 2 m/S 631 mmHg 44%
    14:00 +12°C° 0 mm 2 m/S 631 mmHg 45%
    15:00 +12°C° 0 mm 2 m/S 631 mmHg 47%
    16:00 +9°C° 0 mm 2 m/S 630 mmHg 56%
    17:00 +7°C° 0 mm 2 m/S 629 mmHg 65%
    18:00 +4°C° 0 mm 2 m/S 629 mmHg 74%
    19:00 +4°C° 0 mm 2 m/S 629 mmHg 71%
    20:00 +4°C° 0 mm 2 m/S 629 mmHg 68%
    21:00 +4°C° 0 mm 2 m/S 629 mmHg 65%
    22:00 +4°C° 0 mm 2 m/S 629 mmHg 63%
    23:00 +4°C° 0 mm 2 m/S 629 mmHg 62%

    24 Oktober, Dienstag

    Zeit Temperatur Niederschläge Wind Luftdruck Luftfeuchtigkeit
    00:00 +4°C° 0 mm 2 m/S 629 mmHg 61%
    01:00 +4°C° 0 mm 2 m/S 629 mmHg 59%
    02:00 +4°C° 0 mm 2 m/S 629 mmHg 58%
    03:00 +5°C° 0 mm 2 m/S 628 mmHg 57%
    04:00 +5°C° 0 mm 2 m/S 628 mmHg 57%
    05:00 +5°C° 0 mm 2 m/S 628 mmHg 57%
    06:00 +5°C° 0 mm 2 m/S 628 mmHg 57%
    07:00 +7°C° 0 mm 2 m/S 629 mmHg 53%
    08:00 +11°C° 0 mm 1 m/S 631 mmHg 49%
    09:00 +13°C° 0 mm 1 m/S 632 mmHg 45%
    10:00 +15°C° 0 mm 1 m/S 632 mmHg 43%
    11:00 +16°C° 0 mm 1 m/S 632 mmHg 40%
    12:00 +18°C° 0 mm 1 m/S 632 mmHg 38%
    13:00 +18°C° 0 mm 1 m/S 632 mmHg 40%
    14:00 +16°C° 0 mm 1 m/S 631 mmHg 42%
    15:00 +16°C° 0 mm 1 m/S 631 mmHg 43%
    16:00 +14°C° 0 mm 1 m/S 630 mmHg 51%
    17:00 +12°C° 0 mm 1 m/S 629 mmHg 59%
    18:00 +9°C° 0 mm 1 m/S 629 mmHg 66%
    19:00 +8°C° 0 mm 2 m/S 629 mmHg 65%
    20:00 +8°C° 0 mm 2 m/S 629 mmHg 63%
    21:00 +8°C° 0 mm 2 m/S 629 mmHg 62%
    22:00 +9°C° 0 mm 1 m/S 629 mmHg 60%
    23:00 +8°C° 0 mm 1 m/S 629 mmHg 59%

    25 Oktober, Mittwoch

    Zeit Temperatur Niederschläge Wind Luftdruck Luftfeuchtigkeit
    00:00 +8°C° 0 mm 1 m/S 629 mmHg 58%
    01:00 +8°C° 0 mm 1 m/S 628 mmHg 57%
    02:00 +8°C° 0 mm 1 m/S 628 mmHg 57%
    03:00 +7°C° 0 mm 1 m/S 628 mmHg 57%
    04:00 +7°C° 0 mm 1 m/S 628 mmHg 57%
    05:00 +7°C° 0 mm 1 m/S 628 mmHg 57%
    06:00 +7°C° 0 mm 1 m/S 628 mmHg 58%
    07:00 +9°C° 0 mm 1 m/S 629 mmHg 53%
    08:00 +12°C° 0 mm 1 m/S 630 mmHg 49%
    09:00 +14°C° 0 mm 1 m/S 631 mmHg 44%
    10:00 +16°C° 0 mm 1 m/S 632 mmHg 42%
    11:00 +18°C° 0 mm 1 m/S 632 mmHg 40%
    12:00 +18°C° 0 mm 2 m/S 632 mmHg 37%
    13:00 +19°C° 0 mm 1 m/S 632 mmHg 39%
    14:00 +18°C° 0 mm 1 m/S 632 mmHg 42%
    15:00 +18°C° 0 mm 1 m/S 631 mmHg 44%
    16:00 +15°C° 0 mm 1 m/S 631 mmHg 52%
    17:00 +12°C° 0 mm 1 m/S 630 mmHg 61%
    18:00 +10°C° 0 mm 1 m/S 629 mmHg 69%
    19:00 +10°C° 0 mm 1 m/S 629 mmHg 69%
    20:00 +9°C° 0 mm 1 m/S 629 mmHg 69%
    21:00 +9°C° 0 mm 1 m/S 630 mmHg 69%
    22:00 +9°C° 0 mm 1 m/S 629 mmHg 68%
    23:00 +9°C° 0 mm 1 m/S 629 mmHg 67%

    26 Oktober, Donnerstag

    Zeit Temperatur Niederschläge Wind Luftdruck Luftfeuchtigkeit
    00:00 +9°C° 0 mm 1 m/S 629 mmHg 65%
    01:00 +9°C° 0 mm 1 m/S 629 mmHg 64%
    02:00 +9°C° 0 mm 1 m/S 629 mmHg 63%
    03:00 +9°C° 0 mm 1 m/S 629 mmHg 62%
    04:00 +8°C° 0 mm 1 m/S 629 mmHg 61%
    05:00 +8°C° 0 mm 1 m/S 629 mmHg 59%
    06:00 +8°C° 0 mm 1 m/S 629 mmHg 58%
    07:00 +10°C° 0 mm 1 m/S 630 mmHg 54%
    08:00 +13°C° 0 mm 1 m/S 631 mmHg 49%
    09:00 +15°C° 0 mm 1 m/S 633 mmHg 44%
    10:00 +16°C° 0 mm 1 m/S 633 mmHg 43%
    11:00 +17°C° 0 mm 2 m/S 633 mmHg 41%
    12:00 +18°C° 0 mm 2 m/S 634 mmHg 39%
    13:00 +18°C° 0 mm 2 m/S 633 mmHg 43%
    14:00 +17°C° 0 mm 2 m/S 633 mmHg 47%
    15:00 +17°C° 0 mm 2 m/S 633 mmHg 51%
    16:00 +14°C° 0 mm 2 m/S 632 mmHg 61%
    17:00 +12°C° 0 mm 1 m/S 632 mmHg 72%
    18:00 +10°C° 0 mm 1 m/S 631 mmHg 82%
    19:00 +10°C° 0 mm 1 m/S 631 mmHg 82%
    20:00 +9°C° 0 mm 1 m/S 631 mmHg 82%
    21:00 +9°C° 0 mm 1 m/S 632 mmHg 81%
    22:00 +9°C° 0 mm 1 m/S 632 mmHg 81%
    23:00 +9°C° 0 mm 1 m/S 632 mmHg 80%
    Mehr zeigen